New Haven, CT

7:57 AM EST on December 17, 2017 (GMT -0500)
Tweed-New Haven

Weather History for KHVN - October, 2011

Change the Weather History Date:

Monday, October 31, 2011

  Actual Average Record
Temperature  
Mean Temperature 40 °F -  
Max Temperature 53 °F 55 °F 70 °F (1984)
Min Temperature 28 °F 40 °F 28 °F (2011)
Degree Days  
Heating Degree Days 25    
Moisture  
Dew Point 32 °F    
Average Humidity 71    
Maximum Humidity 92    
Minimum Humidity 43    
Precipitation  
Precipitation 0.00 in - - ()
Sea Level Pressure  
Sea Level Pressure 30.37 in    
Wind  
Wind Speed 2 mph (SE)    
Max Wind Speed 10 mph    
Max Gust Speed -    
Visibility 10 miles    
Events      
Averages and records for this station are not official NWS values.
T = Trace of Precipitation, MM = Missing Value Source: NWS Daily Summary

Daily Weather History Graph

Daily Weather History Graph

Search for Another Location

Airport or City:

Trip Planner

Search our weather history database for the weather conditions in past years. The results will help you decide how hot, cold, wet, or windy it might be!

Date:

Astronomy

Oct. 31, 2011 Rise Set
Actual Time 7:21 AM EDT 5:48 PM EDT
Civil Twilight 6:52 AM EDT 6:17 PM EDT
Nautical Twilight 6:20 AM EDT 6:49 PM EDT
Astronomical Twilight 5:48 AM EDT 7:21 PM EDT
Moon 12:27 PM EDT (10/31) 10:20 PM EDT (10/31)
Length of Visible Light 11h 24m
Length of Day
10h 27m
Waxing Crescent, 29% of the Moon is Illuminated
Oct 31
Waxing Crescent
Nov 2
First Quarter
Nov 10
Full
Nov 18
Last Quarter
Nov 25
New

Hourly Weather History & Observations

Time (EDT) Temp. Windchill Dew Point Humidity Pressure Visibility Wind Dir Wind Speed Gust Speed Precip Events Conditions
12:53 AM 30.0 °F - 27.0 °F 88% 30.35 in 10.0 mi Calm Calm - N/A   Clear
1:53 AM 30.0 °F - 27.0 °F 88% 30.35 in 10.0 mi Calm Calm - N/A   Clear
2:53 AM 30.0 °F - 27.0 °F 88% 30.36 in 10.0 mi Calm Calm - N/A   Clear
3:53 AM 30.0 °F - 27.0 °F 88% 30.37 in 10.0 mi Calm Calm - N/A   Clear
4:53 AM 30.0 °F - 26.1 °F 85% 30.37 in 9.0 mi Calm Calm - N/A   Clear
5:53 AM 28.0 °F - 26.1 °F 92% 30.38 in 9.0 mi Calm Calm - N/A   Clear
6:53 AM 28.9 °F - 26.1 °F 89% 30.38 in 9.0 mi Calm Calm - N/A   Clear
7:53 AM 30.9 °F - 28.0 °F 89% 30.40 in 10.0 mi Calm Calm - N/A   Clear
8:53 AM 35.1 °F - 30.0 °F 82% 30.42 in 10.0 mi Calm Calm - N/A   Clear
9:53 AM 39.9 °F 36.7 °F 30.9 °F 70% 30.42 in 10.0 mi North 4.6 mph - N/A   Clear
10:53 AM 46.0 °F - 33.1 °F 61% 30.41 in 10.0 mi Calm Calm - N/A   Clear
11:53 AM 51.1 °F - 30.9 °F 46% 30.41 in 10.0 mi SE 8.1 mph - N/A   Clear
12:53 PM 52.0 °F - 30.0 °F 43% 30.39 in 10.0 mi South 8.1 mph - N/A   Clear
1:53 PM 52.0 °F - 30.9 °F 45% 30.37 in 10.0 mi Variable 3.5 mph - N/A   Clear
2:53 PM 52.0 °F - 33.1 °F 49% 30.36 in 10.0 mi SE 5.8 mph - N/A   Clear
3:53 PM 52.0 °F - 35.1 °F 53% 30.34 in 10.0 mi East 4.6 mph - N/A   Clear
4:53 PM 52.0 °F - 35.1 °F 53% 30.35 in 10.0 mi SE 3.5 mph - N/A   Overcast
5:53 PM 51.8 °F - 37.4 °F 58% 30.36 in 10.0 mi SSE 10.4 mph - N/A   Overcast
6:53 PM 51.1 °F - 37.0 °F 59% 30.38 in 10.0 mi South 5.8 mph - N/A   Mostly Cloudy
7:53 PM 50.0 °F - 37.0 °F 61% 30.38 in 10.0 mi SSE 4.6 mph - N/A   Partly Cloudy
8:53 PM 45.0 °F - 37.0 °F 74% 30.36 in 10.0 mi Calm Calm - N/A   Partly Cloudy
9:53 PM 42.8 °F 41.1 °F 37.4 °F 81% 30.36 in 10.0 mi North 3.5 mph - N/A   Partly Cloudy
10:53 PM 42.1 °F - 36.0 °F 79% 30.35 in 10.0 mi Calm Calm - N/A   Clear
11:53 PM 42.1 °F - 36.0 °F 79% 30.37 in 10.0 mi Calm Calm - N/A   Clear